This demonstration page uses our WeatherBlox Daily Observations layout. Learn more.

Left ArrowRight Arrow

44.31136, -96.79839

Hourly Observations for July 6, 2022

Temp ( °F °C ) Dew Point ( °F °C ) Humidity (%) Winds ( mph kmh ) Pressure ( in mb ) Visibility ( mi km ) Precip ( " mm )
12:41 am 00:41 Cloudy 70 21 70 21 100 100 N 3 6 29.92 1013 7 11 0.00 0.00
12:56 am 00:56 Mostly Cloudy 69 20.6 69 20.6 100 100 NE 5 7 29.97 1015 7 11 0.00 0.00
1:09 am 01:09 Mostly Cloudy 70 21 70 21 100 100 ENE 5 7 29.91 1013 8 13 0.00 0.00
1:56 am 01:56 Cloudy 71 21.7 70 21.1 96 96 ENE 5 7 29.98 1015 9 14 0.00 0.00
2:56 am 02:56 Cloudy 70 21.1 70 21.1 100 100 ENE 3 6 29.98 1015 7 11 0.00 0.00
3:56 am 03:56 Cloudy 71 21.7 70 21.1 96 96 E 5 7 30.00 1016 8 13 0.00 0.00
4:56 am 04:56 Cloudy 71 21.7 70 21.1 96 96 Calm 30.00 1016 7 11 0.00 0.00
5:56 am 05:56 Cloudy with Mist and Fog 70 21.1 70 21.1 100 100 ENE 8 13 30.00 1016 4 6 0.00 0.00
6:16 am 06:16 Cloudy with Mist and Fog 70 21 70 21 100 100 ENE 9 15 29.93 1014 3 4 0.00 0.00
6:28 am 06:28 Cloudy with Mist and Fog 70 21 70 21 100 100 ENE 9 15 29.94 1014 3 5 0.00 0.00
6:56 am 06:56 Cloudy with Mist and Fog 69 20.6 69 20.6 100 100 ENE 8 13 30.01 1016 4 6 0.00 0.00
7:56 am 07:56 Cloudy 70 21.1 68 20 93 93 ENE 10 17 30.02 1017 8 13 0.00 0.00
8:56 am 08:56 Cloudy 72 22.2 68 20 87 87 E 7 11 30.04 1017 8 13 0.00 0.00
9:56 am 09:56 Cloudy 73 22.8 68 20 84 84 E 8 13 30.06 1018 8 13 0.00 0.00
10:39 am 10:39 Cloudy 75 24 66 19 74 74 NE 8 13 29.98 1015 9 14 0.00 0.00
10:51 am 10:51 Cloudy 75 24 68 20 78 78 NE 8 13 29.98 1015 10 16 0.00 0.00
10:56 am 10:56 Cloudy 75 23.9 68 20 79 79 NE 7 11 30.06 1018 10 16 0.00 0.00
11:17 am 11:17 Cloudy 77 25 68 20 74 74 VRB 5 7 29.97 1015 10 16 0.00 0.00
11:52 am 11:52 Cloudy 79 26 66 19 65 65 SE 5 7 29.96 1015 10 16 0.00 0.00
11:56 am 11:56 Cloudy 80 26.7 67 19.4 64 64 Calm 30.05 1018 10 16 0.00 0.00
12:56 pm 12:56 Cloudy 82 27.8 67 19.4 60 60 ENE 5 7 30.04 1017 8 13 0.00 0.00
1:37 pm 13:37 Mostly Sunny 82 28 66 19 58 58 S 3 6 29.92 1013 10 16 0.00 0.00
1:56 pm 13:56 Partly Cloudy 85 29.4 67 19.4 55 55 SE 8 13 30.01 1016 10 16 0.00 0.00
2:03 pm 14:03 Mostly Cloudy 84 29 68 20 58 58 ENE 9 15 29.91 1013 10 16 0.00 0.00
2:56 pm 14:56 Mostly Cloudy 83 28.3 70 21.1 65 65 E 15 24 30.01 1016 10 16 0.00 0.00
3:05 pm 15:05 Partly Cloudy 82 28 70 21 66 66 E 15 24 29.91 1013 10 16 0.00 0.00
3:43 pm 15:43 Mostly Cloudy 82 28 70 21 66 66 E 14 22 29.92 1013 10 16 0.00 0.00
3:56 pm 15:56 Mostly Cloudy 82 27.8 69 20.6 65 65 E 13 20 30.02 1017 10 16 0.00 0.00
4:56 pm 16:56 Mostly Cloudy 82 27.8 68 20 63 63 ESE 14 22 30.03 1017 10 16 0.00 0.00
5:56 pm 17:56 Cloudy 77 25 68 20 74 74 ESE 13 20 30.04 1017 10 16 0.00 0.00
6:56 pm 18:56 Mostly Cloudy 79 26.1 69 20.6 72 72 ESE 12 19 30.02 1017 10 16 0.00 0.00
7:06 pm 19:06 Partly Cloudy 79 26 70 21 74 74 ESE 12 19 29.92 1013 10 16 0.00 0.00
7:56 pm 19:56 Sunny 76 24.4 69 20.6 79 79 ESE 8 13 30.01 1016 10 16 0.00 0.00
8:56 pm 20:56 Sunny 73 22.8 69 20.6 87 87 E 8 13 30.01 1016 10 16 0.00 0.00
9:56 pm 21:56 Clear 71 21.7 69 20.6 94 94 E 6 9 30.03 1017 10 16 0.00 0.00
10:56 pm 22:56 Mostly Clear 70 21.1 69 20.6 97 97 E 5 7 30.04 1017 9 14 0.00 0.00
11:56 pm 23:56 Clear 70 21.1 69 20.6 97 97 ESE 6 9 30.02 1017 7 11 0.00 0.00

Powered by AerisWeather